| time (UTC) | temp C | wind direction | speed KPH | gust KPH | rain 1hr cm | rain 24hr cm | rain mn cm | humidity % | barometer mb |
| 20260510234656 | 24 | 238 | 4.8 | 17.7 | 0.00 | 0.00 | 0.00 | 12 | 1009.8 |
| 20260510233642 | 24 | 244 | 11.3 | 27.4 | 0.00 | 0.00 | 0.00 | 11 | 1009.8 |
| 20260510232643 | 24 | 236 | 11.3 | 27.4 | 0.00 | 0.00 | 0.00 | 11 | 1009.7 |
| 20260510231632 | 25 | 222 | 6.4 | 25.7 | 0.00 | 0.00 | 0.00 | 11 | 1009.8 |
| 20260510230616 | 24 | 236 | 11.3 | 25.7 | 0.00 | 0.00 | 0.00 | 11 | 1009.6 |
| 20260510222244 | 24 | 234 | 0.0 | 0.0 | 0.00 | 0.00 | 0.00 | 11 | 1009.7 |
| 20260510221243 | 24 | 235 | 1.6 | 27.4 | 0.00 | 0.00 | 0.00 | 11 | 1010.0 |
| 20260510220239 | 24 | 253 | 9.7 | 27.4 | 0.00 | 0.00 | 0.00 | 11 | 1010.0 |
| 20260510215225 | 25 | 225 | 6.4 | 25.7 | 0.00 | 0.00 | 0.00 | 11 | 1009.9 |
| 20260510211956 | 25 | 247 | 4.8 | 24.1 | 0.00 | 0.00 | 0.00 | 11 | 1010.1 |
| 20260510211005 | 25 | 246 | 6.4 | 25.7 | 0.00 | 0.00 | 0.00 | 11 | 1010.1 |
| 20260510204754 | 23 | 0 | 1.6 | 24.1 | 0.00 | 0.00 | 0.00 | 11 | 1010.1 |
| 20260510201534 | 23 | 0 | 6.4 | 12.9 | 0.00 | 0.00 | 0.00 | 11 | 1010.2 |
| 20260510200503 | 23 | 241 | 9.7 | 32.2 | 0.00 | 0.00 | 0.00 | 11 | 1010.2 |
| 20260510195520 | 23 | 217 | 6.4 | 32.2 | 0.00 | 0.00 | 0.00 | 11 | 1010.3 |
| 20260510194451 | 23 | 259 | 1.6 | 22.5 | 0.00 | 0.00 | 0.00 | 11 | 1010.3 |
| 20260510193451 | 23 | 170 | 4.8 | 22.5 | 0.00 | 0.00 | 0.00 | 11 | 1010.4 |
| 20260510192501 | 23 | 130 | 0.0 | 16.1 | 0.00 | 0.00 | 0.00 | 11 | 1010.4 |
| 20260510191519 | 23 | 140 | 1.6 | 0.0 | 0.00 | 0.00 | 0.00 | 11 | 1010.4 |
| 20260510190448 | 22 | 84 | 1.6 | 0.0 | 0.00 | 0.00 | 0.00 | 12 | 1010.4 |
| 20260510185459 | 22 | 142 | 4.8 | 16.1 | 0.00 | 0.00 | 0.00 | 11 | 1010.5 |
| 20260510184504 | 22 | 172 | 0.0 | 24.1 | 0.00 | 0.00 | 0.00 | 11 | 1010.6 |
| 20260510182308 | 22 | 186 | 0.0 | 0.0 | 0.00 | 0.00 | 0.00 | 11 | 1010.7 |
| 20260510181325 | 22 | 167 | 4.8 | 17.7 | 0.00 | 0.00 | 0.00 | 12 | 1010.8 |
| 20260510180326 | 22 | 127 | 4.8 | 17.7 | 0.00 | 0.00 | 0.00 | 13 | 1010.8 |
| 20260510175338 | 22 | 150 | 12.9 | 25.7 | 0.00 | 0.00 | 0.00 | 12 | 1011.0 |
| 20260510174323 | 21 | 146 | 6.4 | 20.9 | 0.00 | 0.00 | 0.00 | 13 | 1010.8 |
| 20260510173249 | 21 | 130 | 14.5 | 30.6 | 0.00 | 0.00 | 0.00 | 13 | 1010.9 |
| 20260510172249 | 22 | 142 | 14.5 | 30.6 | 0.00 | 0.00 | 0.00 | 14 | 1010.9 |
| 20260510171259 | 21 | 137 | 6.4 | 17.7 | 0.00 | 0.00 | 0.00 | 13 | 1010.9 |
| 20260510170302 | 21 | 85 | 0.0 | 11.3 | 0.00 | 0.00 | 0.00 | 12 | 1010.8 |
| 20260510164153 | 20 | 124 | 0.0 | 6.4 | 0.00 | 0.00 | 0.00 | 13 | 1010.7 |
| 20260510163140 | 20 | 105 | 0.0 | 12.9 | 0.00 | 0.00 | 0.00 | 14 | 1010.7 |
| 20260510162115 | 20 | 105 | 0.0 | 0.0 | 0.00 | 0.00 | 0.00 | 14 | 1010.6 |
| 20260510161108 | 20 | 176 | 0.0 | 0.0 | 0.00 | 0.00 | 0.00 | 15 | 1010.6 |
| 20260510160034 | 19 | 195 | 0.0 | 9.7 | 0.00 | 0.00 | 0.00 | 15 | 1010.6 |
| 20260510155044 | 19 | 153 | 0.0 | 11.3 | 0.00 | 0.00 | 0.00 | 16 | 1010.6 |
| 20260510154107 | 18 | 184 | 0.0 | 1.6 | 0.00 | 0.00 | 0.00 | 16 | 1010.5 |
| 20260510153124 | 18 | 184 | 0.0 | 12.9 | 0.00 | 0.00 | 0.00 | 16 | 1010.4 |
| 20260510150950 | 17 | 355 | 0.0 | 0.0 | 0.00 | 0.00 | 0.00 | 16 | 1010.3 |
| 20260510150006 | 17 | 355 | 0.0 | 0.0 | 0.00 | 0.00 | 0.00 | 18 | 1010.3 |
| 20260510144938 | 16 | 355 | 0.0 | 3.2 | 0.00 | 0.00 | 0.00 | 19 | 1010.4 |
| 20260510143946 | 16 | 355 | 0.0 | 0.0 | 0.00 | 0.00 | 0.00 | 18 | 1010.3 |
| 20260510142953 | 15 | 355 | 0.0 | 0.0 | 0.00 | 0.00 | 0.00 | 20 | 1010.2 |
| 20260510141924 | 13 | 355 | 0.0 | 0.0 | 0.00 | 0.00 | 0.00 | 20 | 1010.2 |
| 20260510140926 | 12 | 355 | 0.0 | 0.0 | 0.00 | 0.00 | 0.00 | 20 | 1010.2 |
| 20260510135947 | 12 | 355 | 0.0 | 0.0 | 0.00 | 0.00 | 0.00 | 22 | 1010.1 |
| 20260510134950 | 11 | 355 | 0.0 | 0.0 | 0.00 | 0.00 | 0.00 | 23 | 1009.9 |
| 20260510134013 | 11 | 355 | 0.0 | 0.0 | 0.00 | 0.00 | 0.00 | 23 | 1009.9 |
| 20260510132943 | 9 | 355 | 0.0 | 0.0 | 0.00 | 0.00 | 0.00 | 25 | 1009.7 |
| 20260510131921 | 8 | 355 | 0.0 | 0.0 | 0.00 | 0.00 | 0.00 | 26 | 1009.7 |
| 20260510130906 | 8 | 355 | 0.0 | 1.6 | 0.00 | 0.00 | 0.00 | 26 | 1009.7 |
| 20260510124751 | 7 | 350 | 1.6 | 12.9 | 0.00 | 0.00 | 0.00 | 26 | 1009.5 |
| 20260510123808 | 6 | 355 | 1.6 | 12.9 | 0.00 | 0.00 | 0.00 | 27 | 1009.4 |
| 20260510122821 | 5 | 355 | 0.0 | 1.6 | 0.00 | 0.00 | 0.00 | 28 | 1009.2 |
| 20260510120719 | 4 | 355 | 0.0 | 6.4 | 0.00 | 0.00 | 0.00 | 28 | 1008.9 |
| 20260510115727 | 4 | 355 | 0.0 | 0.0 | 0.00 | 0.00 | 0.00 | 28 | 1008.7 |
| 20260510114719 | 4 | 355 | 0.0 | 0.0 | 0.00 | 0.00 | 0.00 | 28 | 1008.6 |
| 20260510113703 | 3 | 355 | 0.0 | 0.0 | 0.00 | 0.00 | 0.00 | 29 | 1008.7 |
| 20260510112708 | 4 | 355 | 0.0 | 0.0 | 0.00 | 0.00 | 0.00 | 28 | 1008.7 |
| 20260510110529 | 6 | 355 | 0.0 | 0.0 | 0.00 | 0.00 | 0.00 | 24 | 1008.3 |
| 20260510104429 | 7 | 355 | 11.3 | 19.3 | 0.00 | 0.00 | 0.00 | 23 | 1008.1 |
| 20260510102220 | 5 | 345 | 0.0 | 11.3 | 0.00 | 0.00 | 0.00 | 26 | 1007.8 |
| 20260510101225 | 6 | 342 | 1.6 | 12.9 | 0.00 | 0.00 | 0.00 | 25 | 1007.7 |
| 20260510100153 | 6 | 337 | 0.0 | 8.0 | 0.00 | 0.00 | 0.00 | 25 | 1007.7 |
| 20260510095123 | 7 | 335 | 0.0 | 0.0 | 0.00 | 0.00 | 0.00 | 24 | 1007.7 |
| 20260510094126 | 8 | 335 | 0.0 | 0.0 | 0.00 | 0.00 | 0.00 | 22 | 1007.5 |
| 20260510093105 | 11 | 334 | 1.6 | 16.1 | 0.00 | 0.00 | 0.00 | 20 | 1007.4 |
| 20260510092109 | 11 | 330 | 0.0 | 12.9 | 0.00 | 0.00 | 0.00 | 20 | 1007.4 |
| 20260510091112 | 11 | 0 | 6.4 | 17.7 | 0.00 | 0.00 | 0.00 | 20 | 1007.3 |
| 20260510090135 | 11 | 331 | 9.7 | 19.3 | 0.00 | 0.00 | 0.00 | 20 | 1007.1 |
| 20260510085158 | 11 | 335 | 14.5 | 19.3 | 0.00 | 0.00 | 0.00 | 21 | 1007.1 |
| 20260510083029 | 11 | 342 | 6.4 | 17.7 | 0.00 | 0.00 | 0.00 | 21 | 1006.9 |
| 20260510082023 | 11 | 343 | 6.4 | 16.1 | 0.00 | 0.00 | 0.00 | 21 | 1007.0 |
| 20260510075908 | 11 | 345 | 4.8 | 14.5 | 0.00 | 0.00 | 0.00 | 22 | 1007.0 |
| 20260510074859 | 11 | 338 | 0.0 | 12.9 | 0.00 | 0.00 | 0.00 | 22 | 1007.0 |
| 20260510073853 | 11 | 346 | 0.0 | 11.3 | 0.00 | 0.00 | 0.00 | 24 | 1007.1 |
| 20260510072822 | 11 | 347 | 0.0 | 1.6 | 0.00 | 0.00 | 0.00 | 24 | 1007.1 |
| 20260510071800 | 11 | 348 | 0.0 | 14.5 | 0.00 | 0.00 | 0.00 | 25 | 1007.0 |
| 20260510070743 | 11 | 347 | 4.8 | 16.1 | 0.00 | 0.00 | 0.00 | 25 | 1007.1 |
| 20260510064530 | 10 | 350 | 1.6 | 14.5 | 0.00 | 0.00 | 0.00 | 28 | 1007.0 |
| 20260510062407 | 10 | 0 | 1.6 | 12.9 | 0.00 | 0.00 | 0.00 | 31 | 1006.8 |
| 20260510061341 | 10 | 14 | 0.0 | 11.3 | 0.00 | 0.00 | 0.00 | 32 | 1006.6 |
| 20260510060316 | 9 | 9 | 0.0 | 11.3 | 0.00 | 0.00 | 0.00 | 34 | 1006.6 |
| 20260510055252 | 8 | 9 | 0.0 | 0.0 | 0.00 | 0.00 | 0.00 | 36 | 1006.4 |
| 20260510054228 | 8 | 9 | 0.0 | 0.0 | 0.00 | 0.00 | 0.00 | 36 | 1006.5 |
| 20260510052030 | 10 | 9 | 0.0 | 0.0 | 0.00 | 0.00 | 0.00 | 35 | 1006.3 |
| 20260510051016 | 10 | 9 | 0.0 | 0.0 | 0.00 | 0.00 | 0.00 | 36 | 1006.3 |
| 20260510045953 | 10 | 9 | 0.0 | 0.0 | 0.00 | 0.00 | 0.00 | 36 | 1006.3 |
| 20260510044933 | 10 | 9 | 0.0 | 0.0 | 0.00 | 0.00 | 0.00 | 36 | 1006.3 |
| 20260510043957 | 10 | 9 | 0.0 | 0.0 | 0.00 | 0.00 | 0.00 | 34 | 1006.2 |
| 20260510042950 | 11 | 9 | 0.0 | 0.0 | 0.00 | 0.00 | 0.00 | 33 | 1006.1 |
| 20260510041955 | 11 | 9 | 0.0 | 0.0 | 0.00 | 0.00 | 0.00 | 33 | 1006.1 |
| 20260510040938 | 11 | 0 | 0.0 | 4.8 | 0.00 | 0.00 | 0.00 | 34 | 1006.1 |
| 20260510035918 | 12 | 0 | 0.0 | 0.0 | 0.00 | 0.00 | 0.00 | 32 | 1006.0 |
| 20260510034847 | 12 | 0 | 0.0 | 0.0 | 0.00 | 0.00 | 0.00 | 31 | 1005.8 |
| 20260510033849 | 13 | 0 | 0.0 | 1.6 | 0.00 | 0.00 | 0.00 | 30 | 1005.7 |
| 20260510032903 | 14 | 0 | 0.0 | 0.0 | 0.00 | 0.00 | 0.00 | 28 | 1005.5 |
| 20260510030739 | 15 | 0 | 0.0 | 1.6 | 0.00 | 0.00 | 0.00 | 26 | 1005.2 |
| 20260510025713 | 15 | 0 | 0.0 | 0.0 | 0.00 | 0.00 | 0.00 | 26 | 1005.1 |
| 20260510023454 | 16 | 0 | 0.0 | 0.0 | 0.00 | 0.00 | 0.00 | 25 | 1004.9 |
| 20260510021321 | 17 | 0 | 0.0 | 0.0 | 0.00 | 0.00 | 0.00 | 24 | 1004.7 |
| 20260510020344 | 18 | 0 | 0.0 | 0.0 | 0.00 | 0.00 | 0.00 | 24 | 1004.9 |
| 20260510015356 | 18 | 344 | 9.7 | 0.0 | 0.00 | 0.00 | 0.00 | 24 | 1004.8 |
| 20260510013253 | 19 | 343 | 25.7 | 37.0 | 0.00 | 0.00 | 0.00 | 23 | 1004.4 |
| 20260510012306 | 19 | 330 | 20.9 | 30.6 | 0.00 | 0.00 | 0.00 | 22 | 1004.4 |
| 20260510011241 | 19 | 349 | 20.9 | 40.2 | 0.00 | 0.00 | 0.00 | 23 | 1004.2 |
| 20260510010301 | 19 | 340 | 22.5 | 40.2 | 0.00 | 0.00 | 0.00 | 22 | 1004.2 |
| 20260510005240 | 20 | 347 | 14.5 | 33.8 | 0.00 | 0.00 | 0.00 | 22 | 1004.2 |
| 20260510004257 | 20 | 336 | 14.5 | 25.7 | 0.00 | 0.00 | 0.00 | 21 | 1003.9 |
| 20260510002140 | 21 | 0 | 6.4 | 24.1 | 0.00 | 0.00 | 0.00 | 20 | 1003.6 |
| 20260510001133 | 21 | 0 | 11.3 | 24.1 | 0.00 | 0.00 | 0.00 | 21 | 1003.6 |
| 20260510000150 | 21 | 331 | 24.1 | 32.2 | 0.00 | 0.00 | 0.00 | 20 | 1003.6 |